Douglas, WY

10:46 PM MDT on April 22, 2018 (GMT -0600)
Converse County

Weather History for KDGW - May, 2013

Change the Weather History Date:

Wednesday, May 1, 2013

  Actual Average Record
Temperature  
Mean Temperature 31 °F 48 °F  
Max Temperature 37 °F 63 °F 74 °F (2007)
Min Temperature 25 °F 34 °F 22 °F (2001)
Degree Days  
Heating Degree Days 34 17  
Month to date heating degree days 34 17  
Since 1 July heating degree days 6800 6974  
Cooling Degree Days 0 0  
Month to date cooling degree days 0 0  
Year to date cooling degree days 0 0  
Moisture  
Dew Point 26 °F    
Average Humidity 78    
Maximum Humidity 92    
Minimum Humidity 64    
Precipitation  
Precipitation 0.15 in 0.09 in 0.50 in (2003)
Month to date precipitation 0.15 0.09  
Year to date precipitation 1.59 3.24  
Sea Level Pressure  
Sea Level Pressure 30.37 in    
Wind  
Wind Speed 6 mph (East)    
Max Wind Speed 17 mph    
Max Gust Speed 21 mph    
Visibility 5 miles    
Events Snow    
T = Trace of Precipitation, MM = Missing Value Source: NWS Daily Summary

Daily Weather History Graph

Daily Weather History Graph

Search for Another Location

Airport or City:

Astronomy

May. 01, 2013 Rise Set
Actual Time 5:55 AM MDT 8:02 PM MDT
Civil Twilight 5:24 AM MDT 8:33 PM MDT
Nautical Twilight 4:46 AM MDT 9:11 PM MDT
Astronomical Twilight 4:04 AM MDT 9:53 PM MDT
Moon 1:14 AM MDT (5/1) 11:36 AM MDT (5/1)
Length of Visible Light 15h 09m
Length of Day
14h 07m
Waning Gibbous, 58% of the Moon is Illuminated
May 1
Waning Gibbous
May 2
Last Quarter
May 9
New
May 17
First Quarter
May 24
Full

Hourly Weather History & Observations

Time (MDT) Temp. Windchill Dew Point Humidity Pressure Visibility Wind Dir Wind Speed Gust Speed Precip Events Conditions
12:40 AM 30.2 °F 21.3 °F 28.4 °F 93% 30.14 in 1.0 mi NE 10.4 mph - 0.00 in Snow Light Snow
12:51 AM 32.0 °F 23.6 °F 30.2 °F 93% 30.14 in 1.0 mi ENE 10.4 mph - 0.00 in Snow Light Snow
12:53 AM 32.0 °F 23.6 °F 30.0 °F 92% 30.17 in 1.0 mi ENE 10.4 mph - 0.00 in Snow Light Snow
1:04 AM 32.0 °F 24.2 °F 30.2 °F 93% 30.14 in 1.2 mi East 9.2 mph - 0.00 in Snow Light Snow
1:12 AM 30.2 °F 18.9 °F 30.2 °F 100% 30.14 in 1.0 mi East 16.1 mph 20.7 mph 0.00 in Snow Light Snow
1:15 AM 30.2 °F 20.2 °F 28.4 °F 93% 30.14 in 0.8 mi NE 12.7 mph 20.7 mph 0.00 in Snow Light Snow
1:38 AM 30.2 °F 19.8 °F 28.4 °F 93% 30.15 in 1.2 mi ENE 13.8 mph - 0.00 in Snow Light Snow
1:48 AM 30.2 °F 20.8 °F 28.4 °F 93% 30.15 in 1.8 mi East 11.5 mph - 0.00 in Snow Light Snow
1:53 AM 30.0 °F 20.0 °F 28.0 °F 92% 30.20 in 2.5 mi East 12.7 mph - 0.00 in Snow Light Snow
2:04 AM 30.2 °F 19.8 °F 28.4 °F 93% 30.16 in 3.0 mi ENE 13.8 mph - 0.00 in Snow Light Snow
2:17 AM 30.2 °F 21.3 °F 28.4 °F 93% 30.16 in 2.5 mi ENE 10.4 mph - 0.00 in Snow Light Snow
2:45 AM 30.2 °F 21.9 °F 26.6 °F 86% 30.17 in 3.0 mi East 9.2 mph - 0.00 in Snow Light Snow
2:53 AM 30.0 °F 24.1 °F 28.0 °F 92% 30.22 in 2.5 mi East 5.8 mph - 0.00 in Snow Light Snow
3:03 AM 30.2 °F 25.4 °F 28.4 °F 93% 30.17 in 3.0 mi East 4.6 mph - 0.00 in Snow Light Snow
3:07 AM 30.2 °F 26.7 °F 28.4 °F 93% 30.17 in 2.5 mi East 3.5 mph - 0.00 in Snow Light Snow
3:20 AM 30.2 °F 23.4 °F 28.4 °F 93% 30.18 in 1.2 mi NE 6.9 mph - 0.00 in Snow Light Snow
3:23 AM 30.2 °F 22.6 °F 28.4 °F 93% 30.18 in 0.8 mi NE 8.1 mph - 0.00 in Snow Light Snow
3:30 AM 28.4 °F 21.2 °F 26.6 °F 93% 30.18 in 0.8 mi ENE 6.9 mph - 0.00 in Snow Light Snow
3:36 AM 28.4 °F 22.2 °F 26.6 °F 93% 30.19 in 1.2 mi NE 5.8 mph - 0.00 in Snow Light Snow
3:45 AM 28.4 °F 24.6 °F 26.6 °F 93% 30.19 in 2.5 mi ENE 3.5 mph - 0.00 in Snow Light Snow
3:53 AM 28.9 °F 23.9 °F 27.0 °F 92% 30.24 in 3.0 mi ENE 4.6 mph - 0.00 in Snow Light Snow
4:51 AM 28.4 °F 19.1 °F 23.0 °F 80% 30.22 in 10.0 mi NNE 10.4 mph - 0.00 in   Overcast
4:53 AM 28.0 °F 19.3 °F 23.0 °F 81% 30.28 in 10.0 mi NNE 9.2 mph - 0.00 in   Overcast
5:21 AM 28.4 °F 20.4 °F 21.2 °F 74% 30.24 in 7.0 mi NE 8.1 mph - 0.00 in Snow Light Snow
5:53 AM 27.0 °F 20.5 °F 21.9 °F 81% 30.34 in 10.0 mi NE 5.8 mph - 0.00 in   Overcast
6:53 AM 27.0 °F 14.7 °F 21.0 °F 78% 30.38 in 10.0 mi NE 16.1 mph - N/A   Overcast
7:53 AM 26.1 °F 15.0 °F 19.9 °F 78% 30.43 in 10.0 mi NE 12.7 mph - N/A   Overcast
8:38 AM 26.6 °F 17.5 °F 21.2 °F 80% 30.36 in 10.0 mi ENE 9.2 mph - N/A   Overcast
9:53 AM 28.0 °F 19.3 °F 19.9 °F 72% 30.48 in 10.0 mi NE 9.2 mph - 0.03 in   Overcast
10:24 AM 26.6 °F 21.2 °F 21.2 °F 80% 30.41 in 10.0 mi ESE 4.6 mph - 0.02 in   Overcast
10:53 AM 27.0 °F - 21.0 °F 78% 30.52 in 10.0 mi Calm Calm - 0.03 in   Overcast
11:32 AM 28.4 °F 23.3 °F 23.0 °F 80% 30.43 in 10.0 mi SSE 4.6 mph - 0.06 in   Overcast
11:53 AM 30.0 °F 25.2 °F 24.1 °F 79% 30.52 in 10.0 mi South 4.6 mph - 0.06 in   Overcast
12:53 PM 32.0 °F 28.7 °F 24.1 °F 73% 30.51 in 10.0 mi SSE 3.5 mph - N/A   Mostly Cloudy
1:09 PM 32.0 °F 27.5 °F 24.8 °F 75% 30.43 in 10.0 mi Variable 4.6 mph - N/A   Overcast
1:35 PM 33.8 °F - 24.8 °F 70% 30.43 in 10.0 mi Calm Calm - N/A   Overcast
1:53 PM 34.0 °F 29.8 °F 25.0 °F 70% 30.51 in 10.0 mi Variable 4.6 mph - N/A   Overcast
2:53 PM 36.0 °F 32.1 °F 24.1 °F 62% 30.52 in 10.0 mi Variable 4.6 mph - N/A   Overcast
3:23 PM 33.8 °F 28.6 °F 24.8 °F 70% 30.46 in 1.8 mi Variable 5.8 mph - 0.00 in Snow Light Snow
3:26 PM 32.0 °F 27.5 °F 24.8 °F 75% 30.46 in 0.8 mi Variable 4.6 mph - 0.00 in Snow Light Snow
3:33 PM 32.0 °F 26.4 °F 26.6 °F 80% 30.45 in 0.5 mi SSW 5.8 mph - 0.00 in Snow Snow
3:38 PM 33.8 °F 29.6 °F 26.6 °F 75% 30.45 in 1.0 mi SSW 4.6 mph - 0.01 in Snow Light Snow
3:41 PM 33.8 °F 29.6 °F 28.4 °F 81% 30.45 in 2.0 mi SW 4.6 mph - 0.01 in Snow Light Snow
3:43 PM 33.8 °F 28.6 °F 28.4 °F 81% 30.45 in 3.0 mi SW 5.8 mph - 0.02 in Snow Light Snow
3:53 PM 35.1 °F 29.3 °F 30.0 °F 82% 30.53 in 9.0 mi SW 6.9 mph - 0.02 in   Overcast
4:23 PM 33.8 °F 27.7 °F 28.4 °F 81% 30.46 in 2.5 mi NW 6.9 mph - 0.00 in Snow Light Snow
4:27 PM 33.8 °F - 26.6 °F 75% 30.46 in 1.0 mi Calm Calm - 0.00 in Snow Light Snow
4:39 PM 32.0 °F 24.2 °F 28.4 °F 87% 30.47 in 1.2 mi NNW 9.2 mph - 0.00 in Snow Light Snow
4:53 PM 32.0 °F 25.6 °F 28.0 °F 85% 30.57 in 1.5 mi West 6.9 mph - 0.01 in Snow Light Snow
4:56 PM 32.0 °F 26.4 °F 28.4 °F 87% 30.47 in 3.0 mi WSW 5.8 mph - 0.00 in Snow Light Snow
5:06 PM 33.8 °F 29.6 °F 26.6 °F 75% 30.47 in 8.0 mi West 4.6 mph - 0.00 in Snow Light Snow
5:53 PM 36.0 °F 29.6 °F 30.0 °F 79% 30.57 in 4.0 mi SSE 8.1 mph - 0.00 in Snow Light Snow
6:53 PM 34.0 °F 26.0 °F 28.0 °F 79% 30.59 in 6.0 mi SSE 10.4 mph - 0.00 in Snow Light Snow
7:53 PM 32.0 °F 26.4 °F 28.0 °F 85% 30.63 in 10.0 mi South 5.8 mph - 0.00 in   Clear
8:53 PM 30.0 °F 25.2 °F 27.0 °F 88% 30.66 in 10.0 mi SSE 4.6 mph - N/A   Mostly Cloudy
9:53 PM 28.9 °F - 26.1 °F 89% 30.68 in 10.0 mi Calm Calm - N/A   Clear
10:53 PM 28.9 °F - 25.0 °F 85% 30.69 in 10.0 mi Calm Calm - N/A   Clear
11:53 PM 28.0 °F - 25.0 °F 88% 30.69 in 10.0 mi Calm Calm - N/A   Clear